When you browse on this site, cookies collect data to enhance your experience and personalize the content and advertising you see.
Visit our Privacy Policy to learn more. By continuing to use the site, you agree to this use of cookies and data.
  • In Hungary
  • List of Countries
  • For 7 days
  • Water Temperature
  • Satellite Maps
  • Weather Map
  • News
  • Weather Widgets
  • user-avatar
    Login

    Hourly Weather Chhota Udepur

    Today, 17 November, Saturday

    Time Temperature Precipitation Wind Pressure Humidity
    00:00 +25°C° 0 mm 1 mps 747 mmHg 34%
    01:00 +25°C° 0 mm 1 mps 746 mmHg 35%
    02:00 +24°C° 0 mm 1 mps 746 mmHg 35%
    03:00 +24°C° 0 mm 1 mps 746 mmHg 36%
    04:00 +24°C° 0 mm 1 mps 746 mmHg 37%
    05:00 +24°C° 0 mm 1 mps 746 mmHg 37%
    06:00 +25°C° 0 mm 1 mps 746 mmHg 37%
    07:00 +26°C° 0 mm 1 mps 747 mmHg 36%
    08:00 +27°C° 0 mm 1 mps 747 mmHg 35%
    09:00 +29°C° 0 mm 1 mps 747 mmHg 32%
    10:00 +31°C° 0 mm 1 mps 746 mmHg 29%
    11:00 +33°C° 0 mm 1 mps 746 mmHg 25%
    12:00 +34°C° 0 mm 1 mps 746 mmHg 24%
    13:00 +34°C° 0 mm 1 mps 745 mmHg 22%
    14:00 +35°C° 0 mm 1 mps 744 mmHg 21%
    15:00 +34°C° 0 mm 1 mps 744 mmHg 23%
    16:00 +33°C° 0 mm 1 mps 744 mmHg 25%
    17:00 +32°C° 0 mm 1 mps 744 mmHg 27%
    18:00 +30°C° 0 mm 1 mps 744 mmHg 27%
    19:00 +29°C° 0 mm 1 mps 744 mmHg 27%
    20:00 +28°C° 0 mm 1 mps 745 mmHg 28%
    21:00 +27°C° 0 mm 1 mps 745 mmHg 28%
    22:00 +27°C° 0 mm 1 mps 745 mmHg 28%
    23:00 +26°C° 0 mm 1 mps 745 mmHg 28%

    Tomorrow, 18 November, Sunday

    Time Temperature Precipitation Wind Pressure Humidity
    00:00 +26°C° 0 mm 1 mps 745 mmHg 29%
    01:00 +26°C° 0 mm 1 mps 745 mmHg 29%
    02:00 +25°C° 0 mm 1 mps 745 mmHg 29%
    03:00 +25°C° 0 mm 1 mps 745 mmHg 29%
    04:00 +25°C° 0 mm 1 mps 745 mmHg 30%
    05:00 +24°C° 0 mm 1 mps 745 mmHg 30%
    06:00 +25°C° 0 mm 1 mps 745 mmHg 30%
    07:00 +27°C° 0 mm 1 mps 746 mmHg 29%
    08:00 +28°C° 0 mm 1 mps 746 mmHg 29%
    09:00 +30°C° 0 mm 2 mps 746 mmHg 27%
    10:00 +32°C° 0 mm 2 mps 746 mmHg 24%
    11:00 +35°C° 0 mm 2 mps 746 mmHg 21%
    12:00 +35°C° 0 mm 1 mps 746 mmHg 21%
    13:00 +36°C° 0 mm 1 mps 745 mmHg 20%
    14:00 +36°C° 0 mm 1 mps 744 mmHg 19%
    15:00 +35°C° 0 mm 1 mps 744 mmHg 22%
    16:00 +34°C° 0 mm 1 mps 744 mmHg 24%
    17:00 +32°C° 0 mm 1 mps 744 mmHg 27%
    18:00 +31°C° 0 mm 1 mps 744 mmHg 27%
    19:00 +30°C° 0 mm 1 mps 745 mmHg 27%
    20:00 +29°C° 0 mm 1 mps 746 mmHg 27%
    21:00 +28°C° 0 mm 1 mps 746 mmHg 28%
    22:00 +28°C° 0 mm 1 mps 746 mmHg 28%
    23:00 +27°C° 0 mm 1 mps 746 mmHg 29%

    Day after tomorrow, 19 November, Monday

    Time Temperature Precipitation Wind Pressure Humidity
    00:00 +27°C° 0 mm 1 mps 745 mmHg 30%
    01:00 +27°C° 0 mm 1 mps 745 mmHg 30%
    02:00 +26°C° 0 mm 1 mps 745 mmHg 31%
    03:00 +26°C° 0 mm 1 mps 745 mmHg 32%
    04:00 +26°C° 0 mm 1 mps 745 mmHg 32%
    05:00 +25°C° 0 mm 2 mps 745 mmHg 33%
    06:00 +26°C° 0 mm 2 mps 746 mmHg 34%
    07:00 +27°C° 0 mm 2 mps 747 mmHg 34%
    08:00 +28°C° 0 mm 2 mps 747 mmHg 35%
    09:00 +31°C° 0 mm 2 mps 747 mmHg 32%
    10:00 +34°C° 0 mm 3 mps 747 mmHg 29%
    11:00 +36°C° 0 mm 3 mps 748 mmHg 26%
    12:00 +37°C° 0 mm 2 mps 747 mmHg 25%
    13:00 +36°C° 0 mm 1 mps 746 mmHg 24%
    14:00 +37°C° 0 mm 1 mps 746 mmHg 24%
    15:00 +36°C° 0 mm 1 mps 746 mmHg 26%
    16:00 +35°C° 0 mm 1 mps 745 mmHg 28%
    17:00 +33°C° 0 mm 1 mps 745 mmHg 31%
    18:00 +32°C° 0 mm 2 mps 746 mmHg 32%
    19:00 +31°C° 0 mm 2 mps 747 mmHg 33%
    20:00 +30°C° 0 mm 2 mps 747 mmHg 33%
    21:00 +29°C° 0 mm 2 mps 747 mmHg 34%
    22:00 +29°C° 0 mm 2 mps 747 mmHg 34%
    23:00 +28°C° 0 mm 1 mps 747 mmHg 34%

    20 November, Tuesday

    Time Temperature Precipitation Wind Pressure Humidity
    00:00 +28°C° 0 mm 1 mps 747 mmHg 34%
    01:00 +28°C° 0 mm 1 mps 747 mmHg 34%
    02:00 +27°C° 0 mm 1 mps 747 mmHg 34%
    03:00 +27°C° 0 mm 1 mps 747 mmHg 35%
    04:00 +27°C° 0 mm 1 mps 747 mmHg 35%
    05:00 +26°C° 0 mm 1 mps 747 mmHg 35%
    06:00 +27°C° 0 mm 1 mps 747 mmHg 35%
    07:00 +28°C° 0 mm 1 mps 748 mmHg 34%
    08:00 +29°C° 0 mm 1 mps 749 mmHg 34%
    09:00 +31°C° 0 mm 1 mps 749 mmHg 31%
    10:00 +34°C° 0 mm 2 mps 748 mmHg 28%
    11:00 +36°C° 0 mm 2 mps 748 mmHg 25%
    12:00 +36°C° 0 mm 1 mps 748 mmHg 24%
    13:00 +36°C° 0 mm 1 mps 747 mmHg 23%
    14:00 +35°C° 0 mm 0 mps 746 mmHg 22%
    15:00 +36°C° 0 mm 1 mps 746 mmHg 24%
    16:00 +34°C° 0 mm 1 mps 746 mmHg 26%
    17:00 +33°C° 0 mm 1 mps 746 mmHg 29%
    18:00 +32°C° 0 mm 1 mps 746 mmHg 29%
    19:00 +31°C° 0 mm 1 mps 747 mmHg 29%
    20:00 +30°C° 0 mm 1 mps 748 mmHg 30%
    21:00 +29°C° 0 mm 1 mps 748 mmHg 30%
    22:00 +29°C° 0 mm 1 mps 748 mmHg 30%
    23:00 +28°C° 0 mm 1 mps 748 mmHg 30%

    21 November, Wednesday

    Time Temperature Precipitation Wind Pressure Humidity
    00:00 +28°C° 0 mm 1 mps 747 mmHg 30%
    01:00 +28°C° 0 mm 1 mps 747 mmHg 30%
    02:00 +27°C° 0 mm 1 mps 747 mmHg 30%
    03:00 +27°C° 0 mm 1 mps 747 mmHg 31%
    04:00 +26°C° 0 mm 1 mps 747 mmHg 31%
    05:00 +26°C° 0 mm 1 mps 747 mmHg 31%
    06:00 +27°C° 0 mm 1 mps 747 mmHg 31%
    07:00 +28°C° 0 mm 2 mps 748 mmHg 32%
    08:00 +28°C° 0 mm 2 mps 748 mmHg 32%
    09:00 +31°C° 0 mm 2 mps 748 mmHg 29%
    10:00 +34°C° 0 mm 2 mps 748 mmHg 26%
    11:00 +36°C° 0 mm 2 mps 748 mmHg 22%
    12:00 +36°C° 0 mm 2 mps 747 mmHg 22%
    13:00 +37°C° 0 mm 2 mps 746 mmHg 21%
    14:00 +36°C° 0 mm 1 mps 745 mmHg 21%
    15:00 +35°C° 0 mm 1 mps 745 mmHg 23%
    16:00 +34°C° 0 mm 1 mps 745 mmHg 26%
    17:00 +33°C° 0 mm 1 mps 745 mmHg 28%
    18:00 +32°C° 0 mm 1 mps 746 mmHg 29%
    19:00 +31°C° 0 mm 1 mps 746 mmHg 29%
    20:00 +30°C° 0 mm 1 mps 747 mmHg 30%
    21:00 +29°C° 0 mm 1 mps 747 mmHg 30%
    22:00 +29°C° 0 mm 1 mps 747 mmHg 31%
    23:00 +28°C° 0 mm 1 mps 747 mmHg 32%

    22 November, Thursday

    Time Temperature Precipitation Wind Pressure Humidity
    00:00 +28°C° 0 mm 1 mps 747 mmHg 32%
    01:00 +27°C° 0 mm 2 mps 746 mmHg 33%
    02:00 +27°C° 0 mm 2 mps 746 mmHg 34%
    03:00 +26°C° 0 mm 2 mps 746 mmHg 35%
    04:00 +26°C° 0 mm 2 mps 746 mmHg 36%
    05:00 +25°C° 0 mm 2 mps 747 mmHg 37%
    06:00 +26°C° 0 mm 2 mps 747 mmHg 38%
    07:00 +27°C° 0 mm 3 mps 748 mmHg 38%
    08:00 +28°C° 0 mm 3 mps 749 mmHg 38%
    09:00 +30°C° 0 mm 3 mps 748 mmHg 34%
    10:00 +33°C° 0 mm 3 mps 748 mmHg 30%
    11:00 +35°C° 0 mm 3 mps 748 mmHg 26%
    12:00 +36°C° 0 mm 3 mps 747 mmHg 25%
    13:00 +36°C° 0 mm 2 mps 746 mmHg 23%
    14:00 +37°C° 0 mm 2 mps 746 mmHg 22%
    15:00 +35°C° 0 mm 1 mps 746 mmHg 25%
    16:00 +34°C° 0 mm 1 mps 746 mmHg 27%
    17:00 +33°C° 0 mm 1 mps 746 mmHg 30%
    18:00 +32°C° 0 mm 1 mps 746 mmHg 30%
    19:00 +31°C° 0 mm 1 mps 747 mmHg 31%
    20:00 +30°C° 0 mm 1 mps 747 mmHg 31%
    21:00 +29°C° 0 mm 1 mps 747 mmHg 32%
    22:00 +29°C° 0 mm 1 mps 747 mmHg 33%
    23:00 +28°C° 0 mm 1 mps 747 mmHg 34%
    Show more